Tracking 21094 objects as of 14-Aug-2020
HD Live streaming from Space Station
objects crossing your sky now
Track the most recent launched group of Starlink satellites

COSMOS 874

Track COSMOS 874 now!
10-day predictions
COSMOS 874 is classified as:


NORAD ID: 9591
Int'l Code: 1976-118D
Perigee: 1,470.7 km
Apogee: 1,523.2 km
Inclination: 74.0 °
Period: 115.8 minutes
Semi major axis: 7867 km
RCS: 0.6831 m2 (medium)
Launch date: December 7, 1976
Source: Commonwealth of Independent States (former USSR) (CIS)
Launch site: PLESETSK MISSILE AND SPACE COMPLEX (PKMTR)
aabbcc
Your satellite tracking list
Your tracking list is empty




NASA's NSSDC Master Catalog

Two Line Element Set (TLE):
1  9591U 76118D   20226.75095751 -.00000024  00000-0 -57790-4 0  9998
2  9591  74.0311 160.3086 0033394 322.6463  83.4819 12.43966277983947
Source of the keplerian elements: AFSPC